DELTA 1 DEB, 7081

Orbit data source: Space-Track

DELTA 1 DEB, 7081 is space debris in SSO originally from a launch on Tue, 06 Nov 1973 UTC launched from the Air Force Western Test Range (AFWTR). Debris objects in space refer to the collection of defunct objects orbiting the Earth. Examples of debris include non-operational satellites, rocket bodies, and fragments generated from explosions, collisions, or faulty payload assembly.

Loading next visibility...
Identifier
7081, 1973-086BZ
Orbit
SSO
Country
Flag of USUS
Related business
Manufacturer
Unknown
Mission
Spacecraft
Bus & Motor
Unknown
Mass
Unknown
Launch date (UTC)
1973-11-06 (53 years ago)
Launch vehicle
Unknown
Launch site
Air Force Western Test Range (AFWTR)
Object type
Payload
Rocket body
Debris
Shape & HBR
Unknown shape, 0.2 m
Radar Cross Section
Medium (>0.1 m² and <1 m²)

Expand to show TLE details & history
Last TLE update: 1 day ago

TLE from 1 day ago
0 DELTA 1 DEB
1 07081U 73086BZ  26206.28403242  .00000087  00000-0  65367-3 0  9996
2 07081 102.2725 330.9951 0166020  47.4605 342.9553 12.69918462440533
Epoch: 2026-07-25T06:49Z
TLE epoch observation values (Epoch: 2026-07-25T06:49:00.401Z)
Latitude
29.14639°
Longitude
-81.18737°
Altitude
1,262.59 km
Speed
7.284 km/s
True Right ascension
21h 36m 15s
True Declination
29° 00' 36"
Sunlit
Object was in full shadow at epoch
Visualization orbit readout
Latitude
Unknown
Longitude
Unknown
Altitude
Unknown
Speed
Unknown
Apparent Right ascension
Unknown
Apparent Declination
Unknown
Sunlit
N/A
Visualization observer readout
Local Sidereal Time
23:19:22
Azimuth
Unknown
Elevation
Unknown
Doppler factor
Unknown
Orbital elements
Apogee altitude
1,508.621 km
Perigee altitude
1,251.026 km
Semi-major axis
7,757.96 km
Eccentricity
0.0166
Inclination
102.2725°
RAAN
330.9951°
Arg. of periapsis
47.4605°
True anomaly
342.38639°
Mean anomaly
342.9553°
Eccentric anomaly
342.67199°
Mean motion
3.1763 °/min
Orbital period
113.34 mins
BSTAR
0.00065367
Loading maneuver chart data...
Computing Atmospheric mass density...
Loading historical data...
Loading historical data...
Loading historical data...
Loading historical data...
Loading historical data...
Loading historical data...
Loading historical data...

Documentation

Showing up to 5 results
|